Location: Stara Lesna
(49.1528°N, 20.2911°E)
Time: 12:52:09
(UTC+02:00)

Nadezhda 4 Rocket - Pass Details

Date: 21 September 2019
Orbit: 950 x 992 km, 83.0° (Epoch: 18 October)

Event Time Altitude Azimuth Distance (km) Brightness Sun altitude
Exits shadow 03:32:00 57° 176° (S) 1,112 4.0 -26.8°
Maximum altitude 03:33:22 83° 97° (E) 965 3.9 -26.6°
Drops below altitude 10° 03:39:30 10° 11° (N) 2,687 6.9 -25.8°
Sets 03:42:00 0° 10° (N) 3,637 7.6 -25.5°
